Weather History for KSNT - October, 2013

Change the Weather History Date:

Tuesday, October 15, 2013

  Actual Average Record
Temperature  
Mean Temperature 34 °F 39 °F  
Max Temperature 52 °F 55 °F 74 °F (1991)
Min Temperature 15 °F 24 °F 8 °F (2002)
Degree Days  
Heating Degree Days 31 26  
Month to date heating degree days 420 352  
Since 1 July heating degree days 1171 1393  
Cooling Degree Days 0 0  
Month to date cooling degree days 0 0  
Year to date cooling degree days 19 3  
Moisture  
Dew Point 16 °F    
Average Humidity 56    
Maximum Humidity 92    
Minimum Humidity 20    
Precipitation  
Precipitation 0.00 in 0.04 in 0.52 in (1918)
Month to date precipitation 0.03 0.44  
Year to date precipitation 10.53 12.65  
Sea Level Pressure  
Sea Level Pressure 30.28 in    
Wind  
Wind Speed 3 mph (South)    
Max Wind Speed 8 mph    
Max Gust Speed 12 mph    
T = Trace of Precipitation, MM = Missing Value Source: NWS Daily Summary

Daily Weather History Graph

Daily Weather History Graph

Search for Another Location

Airport or City:

Trip Planner

Search our weather history database for the weather conditions in past years. The results will help you decide how hot, cold, wet, or windy it might be!

Date:

Astronomy

Oct. 15, 2013 Rise Set
Actual Time 7:54 AM MDT 6:55 PM MDT
Civil Twilight 7:25 AM MDT 7:24 PM MDT
Nautical Twilight 6:52 AM MDT 7:57 PM MDT
Astronomical Twilight 6:18 AM MDT 8:31 PM MDT
Moon 5:08 PM MDT (10/15) 4:15 AM MDT (10/15)
Length of Visible Light 11h 58m
Length of Day
11h 00m
Waxing Gibbous, 88% of the Moon is Illuminated
Oct 15
Waxing Gibbous
Oct 18
Full
Oct 26
Last Quarter
Nov 3
New
Nov 9
First Quarter

Hourly Weather History & Observations

Time (MDT) Temp. Windchill Dew Point Humidity Pressure Visibility Wind Dir Wind Speed Gust Speed Precip Events Conditions
12:51 AM 25.0 °F - 19.0 °F 78% 30.28 in - Calm Calm - N/A   Unknown
1:51 AM 23.0 °F - 18.0 °F 81% 30.26 in - Calm Calm - N/A   Unknown
2:51 AM 21.9 °F - 17.1 °F 82% 30.28 in - Calm Calm - N/A   Unknown
3:51 AM 19.0 °F - 16.0 °F 88% 30.30 in - Calm Calm - N/A   Unknown
4:51 AM 18.0 °F 12.7 °F 15.1 °F 88% 30.30 in - South 3.5 mph - N/A   Unknown
5:51 AM 17.1 °F - 15.1 °F 92% 30.32 in - Calm Calm - N/A   Unknown
6:51 AM 18.0 °F 12.7 °F 15.1 °F 88% 30.33 in - South 3.5 mph - N/A   Unknown
7:51 AM 15.1 °F - 12.0 °F 88% 30.36 in - Calm Calm - N/A   Unknown
8:51 AM 19.9 °F - 16.0 °F 85% 30.37 in - Calm Calm - N/A   Unknown
9:51 AM 26.1 °F - 19.9 °F 78% 30.35 in - Calm Calm - N/A   Unknown
10:51 AM 30.9 °F 26.2 °F 23.0 °F 72% 30.32 in - North 4.6 mph - N/A   Unknown
11:51 AM 37.9 °F 33.5 °F 24.1 °F 57% 30.29 in - NW 5.8 mph - N/A   Unknown
12:51 PM 43.0 °F 40.3 °F 18.0 °F 37% 30.27 in - Variable 4.6 mph - N/A   Unknown
1:51 PM 46.0 °F 43.9 °F 10.9 °F 24% 30.25 in - North 4.6 mph - N/A   Unknown
2:51 PM 48.9 °F - 10.0 °F 21% 30.20 in - North 6.9 mph - N/A   Unknown
3:51 PM 50.0 °F - 12.9 °F 23% 30.19 in - Variable 4.6 mph - N/A   Unknown
4:51 PM 50.0 °F - 10.0 °F 20% 30.19 in - Variable 5.8 mph - N/A   Unknown
5:51 PM 50.0 °F - 12.0 °F 22% 30.18 in - West 4.6 mph - N/A   Unknown
6:51 PM 34.0 °F 29.8 °F 16.0 °F 48% 30.25 in - South 4.6 mph - N/A   Unknown
7:51 PM 30.9 °F - 17.1 °F 57% 30.28 in - Calm Calm - N/A   Unknown
8:51 PM 28.0 °F 24.2 °F 18.0 °F 66% 30.28 in - SSE 3.5 mph - N/A   Unknown
9:51 PM 26.1 °F 21.9 °F 18.0 °F 71% 30.27 in - SSE 3.5 mph - N/A   Unknown
10:51 PM 24.1 °F 19.7 °F 17.1 °F 75% 30.26 in - SSE 3.5 mph - N/A   Unknown
11:51 PM 21.9 °F 17.2 °F 17.1 °F 82% 30.23 in - SSE 3.5 mph - N/A   Unknown